Probability
0 0 0 0 0 0 0 0 0 0 0 0 0 0 0 0 0 0 0 0 0 0 0 0 0 0 0 0 0 0 0 0 0 0 0 0 0 0
0 0 0 0 0 0 0 0 0 0 0 0 0 0 0 0 0 0 0 0 0 0 0 0 0 0 0 0 0 0 0 0 0 0 0 0 0 0
0 0 0 0 0 0 0 0 0 0 0 0 0 0 0 0 0 0 0 0 0 0 0 0 0 0 0 0 0 0 0 0 0 0 0 0 0 0
0 0 0 0 0 0 0 0 0 0 0 0 0 0 0 0 0 0 0 0 0 0 0 0 0 0 0 0 0 0 0 0 0 0 0 0 0 0
0 0 0 0 0 0 0 0 0 0 0 0 0 0 0 0 0 0 0 0 0 0 0 0 0 0 0 0 0 0 0 0 0 0 0 0 0 0
0 0 0 0 0 0 0 0 0 0 0 0 0 0 0 0 0 0 0 0 0 0 0 0 0 0 0 0 0 0 0 0 0 0 0 0 0 0
0 0 0 0 0 0 0 0 0 0 0 0 0 0 0 0 0 0 0 0 0 0 0 0 0 0 0 0 0 0 0 0 0 0 0 0 0 0
0 0 0 0 0 0 0 0 0 0 0 0 0 0 0 0 0 0 0 0 0 0 0 0 0 0 0 0 0 0 0 0 0 0 0 0 0 0
0 0 0 0 0 0 0 0 0 0 0 0 0 0 0 0 0 0 0 0 0 0 0 0 0 0 0 0 0 0 0 0 0 0 0 0 0 0
0 0 0 0 0 0 0 0 0 0 0 0 0 0 0 0 0 0 0 0 0 0 0 0 0 0 0 0 0 0 0 0 0 0 0 0 0 0
0 0 0 0 0 0 0 0 0 0 0 0 0 0 0 0 0 0 0 0 0 0 0 0 0 0 0 0 0 0 0 0 0 0 0 0 0 0
0 0 0 0 0 0 0 0 0 0 0 0 0 0 0 0 0 0 0 0 0 0 0 0 0 0 0 0 0 0 0 0 0 0 0 0 0 0
0 0 0 0 0 0 0 0 0 0 0 0 0 0 0 0 0 0 0 0 0 0 0 0 0 0 0 0 0 0 0 0 0 0 0 0 0 0
0 0 0 0 0 0 0 0 0 0 0 0 0 0 0 0 0 0 0 0 0 0 0 0 0 0 0 0 0 0 0 0 0 0 0 0 0 0
0 0 0 0 0 0 0 0 0 0 0 0 0 0 0 0 0 0 0 0 0 0 0 0 0 0 0 0 0 0 0 0 0 0 0 0 0 0
0 0 0 0 0 0 0 0 0 0 0 0 0 0 0 0 0 0 0 0 0 0 0 0 0 0 0 0 0 0 0 0 0 0 0 0 0 0
0 0 0 0 0 0 0 0 0 0 0 0 0 0 0 0 0 0 0 0 0 0 0 0 0 0 0 0 0 0 0 0 0 0 0 0 0 0
0 0 0 0 0 0 0 0 0 0 0 0 0 0 0 0 0 0 0 0 0 0 0 0 0 0 0 0 0 0 0 0 0 0 0 0 0 0
0 0 0 0 0 0 0 0 0 0 0 0 0 0 0 0 0 0 0 0 0 0 0 0 0 0 0 0 0 0 0 0 0 0 0 0 0 0
0 0 0 0 0 0 0 0 0 0 0 0 0 0 0 0 0 0 0 0 0 0 0 0 0 0 0 0 0 0 0 0 0 0 0 0 0 0
0 0 0 0 0 0 0 0 0 0 0 0 0 0 0 0 0 0 0 0 0 0 0 0 0 0 0 0 0 0 0 0 0 0 0 0 0 0
0 0 0 0 0 0 0 0 0 0 0 0 0 0 0 0 0 0 0 0 0 0 0 0 0 0 0 0 0 0 0 0 0 0 0 0 0 0
0 0 0 0 0 0 0 0 0 0 0 0 0 0 0 0 0 0 0 0 0 0 0 0 0 0 0 0 0 0 0 0 0 0 0 0 0 0
Wind_Speed
3 3 2 2 2 2 2 3 3 2 2 2 2 2 1 2 2 2 3 4 5 6 6 6 6 6 6 6 6 6 6 6 6 6 7 7 8 9
2 3 2 2 2 2 2 2 2 3 3 2 2 2 2 2 3 3 4 6 7 7 8 8 8 8 8 8 8 8 8 8 7 7 8 7 7 8
4 4 4 3 3 2 2 2 2 3 3 2 2 2 2 3 2 2 3 4 4 8 8 9 9 9 9 9 9 9 9 9 9 9 9 9 8 8
6 5 5 4 4 3 3 3 3 4 3 4 2 2 3 3 3 3 3 4 4 7 9 10 10 9 9 9 10 10 10 10 10 10 10 10 10 10
7 7 6 6 5 4 4 4 3 4 3 3 3 2 3 2 3 3 4 3 5 6 8 9 9 10 10 9 10 10 10 11 11 12 12 12 11 11
7 7 7 7 7 6 5 5 4 4 4 4 4 3 3 3 2 3 4 3 4 4 5 6 7 9 9 10 10 10 11 11 12 12 12 13 13 12
6 7 7 8 9 7 6 6 5 4 4 4 4 4 4 3 4 3 4 4 5 4 4 4 4 5 6 8 10 11 12 12 12 12 13 13 13 13
7 7 6 7 9 9 9 8 8 7 6 5 5 6 6 5 4 4 4 4 5 2 3 4 3 6 6 7 10 12 13 13 13 13 13 14 14 14
7 6 5 6 7 6 7 8 9 10 9 7 7 8 7 6 5 6 6 6 7 4 3 7 5 7 7 8 12 14 14 14 14 14 14 14 14 14
7 7 6 6 5 6 6 6 6 7 8 8 8 8 8 6 6 6 7 7 7 6 5 7 7 8 8 8 11 15 15 16 15 15 15 15 15 15
6 6 6 6 6 7 6 6 6 6 7 9 9 10 10 10 6 4 5 5 7 6 5 6 6 7 7 8 9 12 14 15 16 16 16 15 15 14
3 4 6 7 6 6 6 6 7 6 4 5 6 7 8 8 9 8 7 7 7 6 5 5 6 5 6 5 6 6 7 11 14 15 16 16 14 10
3 3 3 4 5 6 6 5 7 5 4 5 5 5 5 5 6 6 7 8 8 8 5 5 6 6 7 7 6 7 7 8 8 9 12 15 15 12
2 2 2 3 4 5 4 5 6 4 3 3 4 5 5 5 5 6 7 9 10 11 9 7 7 8 9 10 10 8 7 8 8 9 9 10 12 15
1 0 1 1 2 2 3 4 3 2 2 3 4 5 5 6 6 5 7 7 9 11 10 10 10 9 9 11 11 10 10 9 9 9 9 9 9 8
1 1 1 1 0 1 2 2 1 2 3 4 4 5 4 5 5 5 6 6 6 8 9 10 11 11 11 12 11 11 11 9 8 9 9 9 9 9
1 1 2 2 2 2 2 2 2 1 2 3 3 4 4 5 5 5 5 5 6 8 9 7 7 9 12 11 11 11 11 11 11 10 9 10 10 10
2 2 2 2 2 2 3 3 2 3 3 3 3 4 5 5 6 6 5 6 8 9 9 8 7 7 7 9 12 13 11 11 10 10 10 11 12 10
2 1 1 2 2 3 3 3 4 4 4 4 4 4 5 6 6 6 6 7 8 8 9 8 7 7 10 12 9 12 11 10 10 10 10 11 12 11
2 1 2 2 2 3 3 4 4 4 4 4 5 5 5 5 6 7 7 8 8 9 9 8 7 8 10 12 11 9 11 12 10 11 10 10 11 11
2 2 2 3 3 3 4 4 4 5 5 5 5 6 5 6 6 7 8 10 9 9 9 9 8 10 9 8 10 10 9 11 13 11 10 9 10 10
3 3 4 4 4 4 4 4 5 5 6 5 5 6 6 6 7 9 9 9 8 9 10 9 9 8 7 9 11 13 12 10 10 15 16 14 9 9
4 4 4 5 4 4 4 5 6 5 5 6 6 6 7 7 7 8 9 9 9 10 10 10 8 8 8 9 10 11 14 13 9 9 10 13 17 18
Wind_Direction
175 171 167 175 177 178 164 159 156 187 249 272 279 291 272 253 261 255 257 270 274 272 271 271 270 269 269 268 268 271 274 274 270 266 264 265 265 261
181 178 183 185 177 174 172 170 168 173 218 246 252 276 285 275 255 246 255 271 274 273 270 267 266 265 262 260 259 259 260 261 263 263 262 261 260 260
190 193 204 190 187 183 174 173 180 174 207 250 249 263 260 265 279 263 257 258 267 268 267 265 264 262 259 257 255 254 254 255 255 256 258 258 258 258
201 199 211 201 203 198 191 196 198 196 203 236 249 246 247 254 263 271 268 261 259 264 262 262 261 260 257 256 254 253 252 251 251 251 251 253 254 255
204 204 211 202 213 211 208 210 210 206 207 226 251 246 256 256 264 266 266 268 266 261 258 256 256 255 253 253 254 253 251 249 247 247 247 247 248 249
213 212 212 207 214 214 215 217 213 211 210 227 249 257 258 255 247 262 275 263 271 274 265 261 255 254 251 250 252 252 251 249 247 246 244 244 245 245
220 222 221 217 218 214 215 215 208 214 220 232 248 258 259 250 249 248 267 284 276 256 265 262 256 257 255 251 251 250 249 249 248 246 244 242 242 242
223 226 228 229 229 225 226 220 207 211 221 228 243 250 259 253 253 250 261 276 282 241 240 266 249 261 260 254 251 249 250 249 248 247 244 242 241 240
220 223 229 229 220 228 233 234 229 227 221 224 243 251 258 253 250 258 248 247 256 256 249 275 262 263 262 258 250 250 250 249 248 247 246 243 241 239
220 219 226 236 227 220 229 237 241 240 235 231 239 250 255 258 248 256 263 264 263 255 230 263 268 266 270 263 255 250 250 249 248 248 247 245 243 241
230 229 227 237 238 223 225 240 252 256 248 239 242 252 259 261 254 253 253 257 269 264 217 241 265 272 271 267 260 250 249 249 249 248 247 245 242 241
233 234 231 233 240 228 226 234 250 262 269 271 261 263 263 262 247 235 241 251 264 271 228 226 260 268 275 258 258 261 257 252 249 249 248 246 241 237
231 234 235 231 236 235 229 233 246 263 270 267 272 275 271 264 256 243 235 238 250 257 246 228 257 259 262 276 271 265 262 264 262 257 249 244 237 224
238 245 242 220 224 227 225 238 253 258 255 261 269 273 274 272 268 262 252 247 248 256 262 245 255 261 267 272 274 271 263 259 258 261 261 253 241 229
242 249 304 270 256 246 245 252 256 244 246 255 262 268 271 276 281 279 274 264 262 260 261 253 252 260 260 266 271 273 276 270 257 255 255 251 248 238
339 359 12 20 339 297 308 296 269 254 251 260 270 275 281 282 281 282 283 286 282 279 265 256 252 252 257 259 262 266 265 265 262 256 254 255 250 242
56 46 36 19 7 357 345 329 317 297 274 272 277 287 292 293 293 294 286 286 277 282 286 279 261 254 253 259 262 261 262 262 261 261 258 259 255 247
79 47 19 1 343 328 320 321 316 308 303 299 295 293 295 295 296 296 289 283 281 280 281 285 287 283 272 257 237 255 260 261 262 257 255 259 261 254
67 35 350 333 327 324 322 316 311 312 311 304 299 295 293 293 292 291 291 288 285 284 284 284 280 275 279 281 263 225 249 263 263 261 256 253 259 261
28 360 334 324 319 316 314 313 308 307 305 299 296 295 294 295 294 292 291 289 289 290 288 283 275 270 270 278 283 275 242 253 262 263 263 259 259 263
344 327 318 318 317 315 313 308 306 307 308 306 301 299 296 294 292 293 292 292 288 286 285 286 285 282 279 277 275 274 269 245 246 258 266 264 264 261
334 326 323 321 318 315 314 311 307 305 307 303 301 298 295 293 293 294 293 293 291 288 289 290 293 290 280 274 277 282 286 281 261 250 247 247 255 259
332 326 319 318 317 315 311 308 306 304 303 301 299 298 297 295 294 293 293 291 291 292 294 295 294 286 278 276 279 281 284 286 283 277 266 247 242 251